www.pogodaiklimat.ru

Погода и климат >> Архив погоды >> Норвегия >> Edgeoya


ПОГОДА в Edgeoya

  • Прогноз погоды в Edgeoya
  • Монитор погоды в Edgeoya
  • Климат города

АРХИВ ПОГОДЫ в Edgeoya

Время (UTC), дата Ветер
(напр.,м/с)
 
Видим.   Явления Облачность Т
(С)
Тd
(С)
f
(%)
Тe
(С)
Тes
(С)
Комфортность P
(гПа)
Po
(гПа)
Тmin
(С)
Tmax
(С)
R
(мм)
R24
(мм)
S
(см)
01 16.09 С 8
{10}
н/о н/о +1.0 -0.1 92 -6 -6 1012.9 1011.4
02 16.09 С 8
{10}
н/о н/о +1.2 -0.2 90 -6 -6 1013.2 1011.6
03 16.09 С 9
{10}
н/о н/о +1.3 0.0 91 -6 -6 1013.4 1011.8
04 16.09
{10}
н/о н/о +1.3 -0.1 90 1013.6 1012.0
05 16.09
{10}
н/о н/о +1.3 +0.3 93 1013.6 1012.0
06 16.09 С 9
{10}
н/о н/о +1.1 +1.0 99 -7 -7 1014.1 1012.6 +0.8 +1.6
07 16.09
{11}
н/о н/о +1.3 +1.2 99 1014.3 1012.8
08 16.09 С 9
{10}
н/о н/о +1.3 +1.3 100 -6 -6 1014.7 1013.2
09 16.09
{10}
н/о н/о +1.6 +1.6 100 1014.9 1013.3
10 16.09 С 7
{9}
н/о н/о +1.8 +1.7 99 -5 -5 1015.3 1013.7
11 16.09 В 3
{8}
н/о н/о +2.6 +2.6 100 -2 -2 1015.9 1014.3
12 16.09 В 5
{11}
н/о н/о +2.1 +2.0 99 -4 -4 1016.3 1014.7
13 16.09 В 5
{6}
н/о н/о +1.9 +1.0 94 -4 -4 1016.6 1015.0
14 16.09 В 6
{7}
н/о н/о +1.8 +1.7 99 -5 -5 1016.6 1015.1
15 16.09 В 6
{7}
н/о н/о +1.9 +1.8 99 -4 -4 1016.9 1015.3
16 16.09 В 6
{8}
н/о н/о +1.9 +1.8 99 -4 -4 1017.1 1015.5
17 16.09 В 7
{9}
н/о н/о +1.9 +0.9 93 -5 -5 1017.2 1015.6
18 16.09 В 5
{9}
н/о н/о +1.7 +0.2 90 -4 -4 1017.4 1015.8 +1.0 +2.7
19 16.09 В 7
{8}
н/о н/о +1.8 +0.5 91 -5 -5 1017.3 1015.7
20 16.09 В 7
{8}
н/о н/о +1.4 +0.7 95 -5 -5 1017.3 1015.7
21 16.09 В 7
{8}
н/о н/о +1.7 +0.4 91 -5 -5 1017.2 1015.6
22 16.09 СВ 7
{9}
н/о н/о +0.9 -0.2 92 -6 -6 1017.4 1015.8
23 16.09 СВ 7
{8}
н/о н/о +1.3 -1.6 81 -5 -5 1017.1 1015.5
00 17.09 СВ 8
{9}
н/о н/о +1.3 -0.8 86 -6 -6 1016.6 1015.1
01 17.09 В 8
{10}
н/о н/о +0.7 -0.7 90 -7 -7 1016.5 1014.9
03 17.09 СВ 7
{9}
н/о н/о +1.4 -1.2 83 -5 -5 1016.4 1014.8
05 17.09 СВ 8
{10}
н/о н/о +1.0 +0.3 95 -6 -6 1016.1 1014.6
04 17.09 СВ 9
{11}
н/о н/о +1.3 -0.1 90 -6 -6 1016.1 1014.6
06 17.09 СВ 8 н/о н/о +1.0 +0.3 95 -6 -6 1015.8 1014.2
07 17.09 СВ 9
{10}
н/о н/о +1.0 +0.2 94 -7 -7 1015.7 1014.1
08 17.09 В 9
{11}
н/о н/о +1.2 +0.5 95 -6 -6 1015.6 1014.0
09 17.09 В 9
{11}
н/о н/о +1.2 +0.5 95 -6 -6 1015.5 1013.9
11 17.09 В 8
{10}
н/о н/о +1.0 +0.3 95 -6 -6 1015.2 1013.6
10 17.09 СВ 9
{10}
н/о н/о +0.9 +0.5 97 -7 -7 1015.2 1013.6
12 17.09 В 9
{11}
н/о н/о +0.9 -0.4 91 -7 -7 1014.9 1013.4
13 17.09 СВ 9
{11}
н/о н/о +0.7 -0.7 90 -7 -7 1014.8 1013.3
14 17.09 В 9
{11}
н/о н/о +0.4 -0.4 94 -8 -8 1014.7 1013.2
15 17.09 В 9
{11}
н/о н/о 0.0 -0.7 95 -8 -8 1014.5 1013.0
17 17.09 СВ 8
{11}
н/о н/о +0.1 -1.9 86 -7 -7 1014.2 1012.6
16 17.09 СВ 9
{11}
н/о н/о +0.2 -1.5 88 -8 -8 1014.5 1012.9
18 17.09 СВ 8
{11}
н/о н/о +0.1 -1.8 87 -7 -7 1014.0 1012.4 -0.3 +1.3
19 17.09 В 7
{10}
н/о н/о +0.1 -2.9 80 -7 -7 1013.9 1012.3
20 17.09 В 8
{10}
н/о н/о -0.2 -2.6 84 -8 -8 1013.6 1012.0
21 17.09 СВ 9
{10}
н/о н/о -0.1 -2.6 83 -8 -8 1013.3 1011.8
23 17.09 СВ 7
{10}
н/о н/о -0.2 -2.6 84 -7 -7 1013.0 1011.4
22 17.09 СВ 9
{11}
н/о н/о -0.2 -2.7 83 -8 -8 1013.3 1011.7
00 18.09 СВ 8
{11}
н/о н/о -0.5 -1.9 90 -8 -8 1012.8 1011.2
01 18.09 СВ 8
{10}
н/о н/о 0.0 -1.7 88 -8 -8 1012.6 1011.0
02 18.09 СВ 9
{11}
н/о н/о +0.2 -2.5 82 -8 -8 1012.5 1010.9
03 18.09 СВ 9
{11}
н/о н/о -0.4 -1.1 95 -9 -9 1012.2 1010.6
05 18.09 СВ 9
{11}
н/о н/о -0.4 -1.4 93 -9 -9 1012.5 1010.9
04 18.09 СВ 8
{12}
н/о н/о -0.1 -2.1 86 -8 -8 1012.4 1010.9
06 18.09 СВ 8
{12}
н/о н/о -0.3 -2.7 84 -8 -8 1012.6 1011.1 -0.8 +0.4
07 18.09 СВ 8
{10}
н/о н/о -0.6 -1.9 91 -8 -8 1012.6 1011.0
08 18.09 СВ 9
{10}
н/о н/о -0.2 -1.6 90 -8 -8 1012.5 1011.0
09 18.09 СВ 8
{10}
н/о н/о -0.1 -2.2 86 -8 -8 1012.8 1011.3
11 18.09 СВ 8
{10}
н/о н/о -0.1 -1.1 93 -8 -8 1012.8 1011.2
10 18.09 СВ 7
{10}
н/о н/о -0.3 -1.3 93 -8 -8 1012.9 1011.3
12 18.09 СВ 8
{10}
н/о н/о 0.0 -1.3 91 -8 -8 1013.1 1011.5
13 18.09 СВ 8
{10}
н/о н/о +0.2 -3.2 78 -7 -7 1013.2 1011.6
14 18.09 СВ 8
{10}
н/о н/о 0.0 -1.5 90 -8 -8 1013.2 1011.7
15 18.09 СВ 7
{9}
н/о н/о +0.2 -2.8 80 -7 -7 1013.5 1011.9
17 18.09 СВ 7
{8}
н/о н/о 0.0 -1.5 90 -7 -7 1013.9 1012.3
16 18.09 СВ 7
{8}
н/о н/о +0.2 -3.2 78 -7 -7 1013.6 1012.0
18 18.09 СВ 8
{10}
н/о н/о +0.3 -2.2 83 -7 -7 1014.0 1012.4 -0.6 +0.4
19 18.09 СВ 7
{9}
н/о н/о +0.1 -2.1 85 -7 -7 1014.1 1012.6
20 18.09 СВ 7
{9}
н/о н/о -0.3 -1.2 94 -8 -8 1014.2 1012.6
21 18.09 СВ 7
{9}
н/о н/о -0.5 -1.2 95 -8 -8 1014.4 1012.8
23 18.09 СВ 6
{9}
н/о н/о 0.0 -2.4 84 -7 -7 1014.4 1012.8
22 18.09 СВ 6
{9}
н/о н/о -0.1 -1.9 88 -7 -7 1014.4 1012.8
00 19.09 СВ 6
{9}
н/о н/о -0.2 -0.8 96 -7 -7 1014.4 1012.8
01 19.09 СВ 8
{9}
н/о н/о -0.2 -1.1 94 -8 -8 1014.4 1012.8
02 19.09 СВ 7
{10}
н/о н/о -0.2 -1.6 90 -7 -7 1014.6 1013.0
03 19.09 СВ 7
{9}
н/о н/о 0.0 -1.0 93 -7 -7 1014.8 1013.2
05 19.09 СВ 9
{10}
н/о н/о +0.1 -2.1 85 -8 -8 1014.8 1013.2
04 19.09 СВ 6 н/о н/о -0.2 -1.7 90 -7 -7 1014.9 1013.4
06 19.09 СВ 7
{10}
н/о н/о +0.2 -3.2 78 -7 -7 1014.8 1013.3 -0.6 +0.5
07 19.09 СВ 7
{9}
н/о н/о +0.2 -2.5 82 -7 -7 1014.9 1013.3
08 19.09 СВ 7
{9}
н/о н/о +0.1 -1.6 88 -7 -7 1014.9 1013.3
09 19.09 СВ 7
{10}
н/о н/о -0.2 -1.2 93 -8 -8 1014.9 1013.3
11 19.09 СВ 6
{8}
н/о н/о -0.1 -0.8 95 -7 -7 1015.1 1013.5
10 19.09 СВ 8
{9}
н/о н/о 0.0 -1.4 90 -8 -8 1014.9 1013.3
12 19.09 СВ 7
{10}
н/о н/о +0.4 -2.5 81 -6 -6 1014.9 1013.3
13 19.09 СВ 6
{9}
н/о н/о 0.0 -1.7 88 -7 -7 1014.9 1013.3
14 19.09 СВ 8
{9}
н/о н/о -0.2 -1.3 92 -8 -8 1015.1 1013.5
15 19.09 СВ 7
{9}
н/о н/о +0.2 -3.0 79 -7 -7 1015.1 1013.5
17 19.09 В 7
{9}
н/о н/о 0.0 -2.4 84 -7 -7 1014.8 1013.3
16 19.09 В 6
{9}
н/о н/о -0.2 -0.7 96 -7 -7 1015.0 1013.4
18 19.09 СВ 7
{9}
н/о н/о -0.7 -1.3 96 -8 -8 1014.6 1013.1 -0.7 +0.6
19 19.09 В 7
{9}
н/о н/о -0.2 -2.3 86 -7 -7 1014.6 1013.0
20 19.09 СВ 8
{8}
н/о н/о -0.5 -1.1 96 -8 -8 1014.5 1012.9
21 19.09 В 7
{9}
н/о н/о 0.0 -1.8 88 -7 -7 1014.2 1012.6
23 19.09 В 6
{9}
н/о н/о -0.4 -1.9 90 -7 -7 1013.7 1012.1
22 19.09 СВ 7
{8}
н/о н/о -0.2 -1.1 94 -8 -8 1013.9 1012.3
00 20.09 В 7
{10}
н/о н/о -0.3 -2.4 86 -7 -7 1013.6 1012.1
01 20.09 СВ 7
{10}
н/о н/о -0.3 -1.0 95 -8 -8 1013.4 1011.8
02 20.09 В 8
{10}
н/о н/о 0.0 -1.8 88 -8 -8 1013.1 1011.5
03 20.09 СВ 8
{10}
н/о н/о -0.1 -2.1 86 -8 -8 1013.2 1011.6
05 20.09 В 7
{9}
н/о н/о 0.0 -1.5 90 -7 -7 1012.6 1011.1
04 20.09 СВ 8
{9}
н/о н/о 0.0 -2.1 86 -8 -8 1012.9 1011.3
06 20.09 СВ 9
{10}
н/о н/о +0.4 -2.6 80 -7 -7 1012.2 1010.7 -0.7 +0.4
07 20.09 В 7
{10}
н/о н/о +0.3 -3.4 76 -7 -7 1012.1 1010.5
08 20.09 СВ 7
{9}
н/о н/о +0.1 -3.1 79 -7 -7 1011.9 1010.3
09 20.09 В 7
{10}
н/о н/о 0.0 -2.1 86 -7 -7 1011.7 1010.1
11 20.09 В 7
{9}
н/о н/о +0.1 -1.3 90 -7 -7 1011.5 1009.9
10 20.09 СВ 6
{9}
н/о н/о +0.3 -2.9 79 -6 -6 1011.4 1009.8
12 20.09 СВ 8
{10}
н/о н/о +0.3 -1.1 90 -7 -7 1010.9 1009.4
13 20.09 СВ 9
{11}
н/о н/о +0.4 -0.7 92 -7 -7 1010.7 1009.1
14 20.09 СВ 10
{12}
н/о н/о +0.6 -0.5 92 -8 -8 1010.2 1008.6
15 20.09 В 10
{12}
н/о н/о +0.2 -0.2 97 -8 -8 1010.1 1008.5
17 20.09 В 10
{13}
н/о н/о 0.0 -1.3 91 -8 -8 1009.4 1007.8
16 20.09 В 10
{11}
н/о н/о +0.6 -1.3 87 -7 -7 1009.7 1008.1
18 20.09 СВ 9
{13}
н/о н/о +0.2 -1.8 86 -8 -8 1008.9 1007.3 -0.3 +0.8
19 20.09 СВ 10
{11}
н/о н/о +0.5 -2.0 83 -7 -7 1008.5 1006.9
20 20.09 В 9
{10}
н/о н/о +0.1 -1.0 92 -8 -8 1008.3 1006.7
21 20.09 В 10
{11}
н/о н/о +0.6 -1.3 87 -7 -7 1007.9 1006.4
23 20.09 СВ 10
{11}
н/о н/о +0.5 -0.6 92 -8 -8 1006.8 1005.3
22 20.09 В 9
{10}
н/о н/о +0.5 -0.8 91 -7 -7 1007.4 1005.9
00 21.09 СВ 11
{13}
н/о н/о +0.3 -1.9 85 -8 -8 1006.7 1005.1
01 21.09 В 11
{13}
н/о н/о -0.1 -0.3 99 -9 -9 1006.4 1004.9
02 21.09 В 12
{14}
н/о н/о +0.2 -2.0 85 -9 -9 1006.0 1004.5
03 21.09 СВ 11
{14}
н/о н/о -0.2 -1.1 94 -9 -9 1005.7 1004.2
05 21.09 СВ 12
{14}
н/о н/о +0.3 -0.4 95 -9 -9 1005.0 1003.5
04 21.09 СВ 11
{13}
н/о н/о +0.3 -2.7 80 -8 -8 1005.6 1004.0
06 21.09 СВ 12
{14}
н/о н/о +0.3 -0.5 94 -9 -9 1004.7 1003.1 -0.4 +0.9
07 21.09 СВ 12
{14}
н/о н/о +0.7 -2.7 78 -8 -8 1004.4 1002.8
08 21.09 СВ 12
{14}
н/о н/о +0.7 -2.3 80 -8 -8 1004.0 1002.4
09 21.09 СВ 13
{15}
н/о н/о +0.5 -1.7 85 -8 -8 1003.8 1002.2
11 21.09 СВ 13
{14}
н/о н/о +0.6 -1.8 84 -8 -8 1003.5 1002.0
12 21.09 СВ 13 н/о н/о +1.0 -1.9 81 -8 -8 1003.5 1001.9
13 21.09 СВ 13
{16}
н/о н/о +1.0 -2.0 80 -8 -8 1003.5 1002.0
14 21.09 СВ 13
{15}
н/о н/о +1.0 -2.9 75 -8 -8 1003.7 1002.1
15 21.09 СВ 13
{16}
н/о н/о +0.8 -3.1 75 -8 -8 1003.6 1002.0
16 21.09 СВ 12
{15}
н/о н/о +0.7 -2.7 78 -8 -8 1003.6 1002.1
17 21.09 СВ 12
{14}
н/о н/о +0.5 -2.4 81 -8 -8 1003.4 1001.8
18 21.09 СВ 13
{16}
н/о н/о +0.5 -3.7 73 -8 -8 1003.1 1001.5
20 21.09 СВ 13
{16}
н/о н/о +0.1 -1.8 87 -9 -9 1003.0 1001.4
21 21.09 СВ 12
{15}
н/о н/о +0.6 -1.9 83 -8 -8 1003.1 1001.6
22 21.09 СВ 13
{15}
н/о н/о +0.5 -3.2 76 -8 -8 1003.0 1001.4
23 21.09 СВ 12
{16}
н/о н/о +0.5 -2.0 83 -8 -8 1003.1 1001.5
00 22.09 СВ 12
{15}
н/о н/о +0.6 -1.9 83 -8 -8 1003.1 1001.6
02 22.09 СВ 13
{15}
н/о н/о +0.5 -0.6 92 -9 -9 1002.7 1001.2
01 22.09 СВ 13
{15}
н/о н/о +0.6 -1.5 86 -8 -8 1002.9 1001.3
03 22.09 СВ 12
{15}
н/о н/о +0.6 -0.1 95 -8 -8 1002.6 1001.0
04 22.09 СВ 13
{15}
н/о н/о +1.0 -0.4 90 -8 -8 1002.5 1000.9
05 22.09 СВ 13
{15}
н/о н/о +0.9 -0.7 89 -8 -8 1002.5 1000.9
06 22.09 СВ 13
{16}
н/о н/о +1.0 -0.7 88 -8 -8 1002.6 1001.1
08 22.09 СВ 13
{16}
н/о н/о +1.0 -1.2 85 -8 -8 1002.9 1001.3
07 22.09 СВ 12
{15}
н/о н/о +1.1 -1.1 85 -7 -7 1002.7 1001.1
09 22.09 СВ 11
{14}
н/о н/о +1.0 -1.1 86 -7 -7 1003.5 1001.9
10 22.09 СВ 11
{14}
н/о н/о +0.8 -1.1 87 -7 -7 1003.4 1001.9
11 22.09 СВ 11
{13}
н/о н/о +0.9 -0.8 88 -7 -7 1003.9 1002.3
12 22.09 СВ 11
{16}
н/о н/о +0.7 -1.0 88 -8 -8 1003.7 1002.2
14 22.09 СВ 12
{14}
н/о н/о +0.5 -0.8 91 -8 -8 1003.7 1002.1
13 22.09 СВ 12
{14}
н/о н/о +0.8 -1.3 86 -8 -8 1003.6 1002.0
15 22.09 СВ 12
{15}
н/о н/о +0.7 -1.0 88 -8 -8 1003.6 1002.0
16 22.09 СВ 14
{17}
н/о н/о +0.6 -1.5 86 -9 -9 1003.0 1001.4
17 22.09 СВ 13
{16}
н/о н/о +0.7 -1.4 86 -8 -8 1002.6 1001.0
18 22.09 СВ 13
{17}
н/о н/о +0.6 -1.5 86 -8 -8 1002.4 1000.8 +0.5 +1.2
20 22.09 СВ 13
{16}
н/о н/о +0.9 -0.7 89 -8 -8 1001.0 999.5
19 22.09 СВ 13
{15}
н/о н/о +0.7 -1.0 88 -8 -8 1001.7 1000.2
21 22.09 СВ 13
{16}
н/о н/о +1.0 -0.6 89 -8 -8 1000.6 999.1
22 22.09 СВ 13
{17}
н/о н/о +0.9 -0.5 90 -8 -8 1000.4 998.8
23 22.09 СВ 13
{17}
н/о н/о +0.5 -0.6 92 -9 -9 1000.0 998.4

 

Местоположение метеостанции Edgeoya (Норвегия): широта 78.25 долгота 22.82 высота над уровнем моря 14 м.

В архиве по умолчанию представлена погода в Edgeoya за последнюю неделю. Архивные данные за месяц целиком и за предыдущие месяцы, начиная с января 2011 года, Вы можете получить, выбрав интересующий диапазон дат из раскрывающегося списка и нажав кнопку "Ввод!".


*Определитесь, кто Вы:
робот инопланетянин человек

Внимание! Время в таблицах - всемирное. Для получения местного времени необходимо прибавить поправку, которая в Edgeoya равна 1 ч.

Смотрите также архив погоды в соседних городах и на ближайших метеорологических станциях:

Погода в Pyramiden (Норвегия) (151 км)
Погода в Kongsoya (Норвегия) (153 км)
Погода в Svalbard Lufthavn (Норвегия) (166 км)
Погода в Баренцбурге (Шпицберген, Россия) (196 км)
Погода в Akseloya (Норвегия) (197 км)
Погода в Hopen (Норвегия) (201 км)
Погода в Hornsund (Норвегия) (222 км)
Погода в Verlegenhuken (Норвегия) (243 км)
Погода в Sorkappoya (Норвегия) (249 км)
Погода в Ny-Alesund (Норвегия) (251 км)

Пояснения к столбцам:

Ветер - указаны скорость ветра в м/с - средняя за 10 мин, порывы в срок и между сроками (в фигурных скобках) и направление, откуда дует ветер: С - северный, СВ - северо-восточный, В - восточный, ЮВ - юго-восточный, Ю - южный, ЮЗ - юго-западный, З - западный, СЗ - северо-западный.
Видимость - горизонтальная дальность видимости в метрах или километрах. При видимости от 1 до 10 км при отсутствии осадков обычно наблюдается дымка, при ухудшении видимости до 1 км и менее - туман. В сухую погоду видимость может ухудшаться дымом, пылью или мглою.
Явления - указаны атмосферные явления, наблюдавшиеся в срок или в последний час перед сроком; фигурными скобками обозначены явления, наблюдавшиеся между сроками (за 1-3 часа до срока); квадратными скобками обозначены град или гололедные отложения с указанием их диаметра в мм.
Облачность - указаны через наклонную черту общая и нижняя облачность в баллах и высота нижней границы облаков в метрах; квадратными скобками обозначены формы облаков: Ci - перистые, Cs - перисто-слоистые, Cc - перисто-кучевые, Ac - высококучевые, As - высокослоистые, Sc - слоисто-кучевые, Ns - слоисто-дождевые, Cu - кучевые, Cb - кучево-дождевые. Подробнее классификацию облаков см. в Атласе облаков (PDF).
T - Температура воздуха - температура, измеренная на высоте 2 м над землей.
Td - Температура точки росы - температура, при понижении до которой содержащийся в воздухе водяной пар достигнет насыщения.
f - Относительная влажность воздуха - влажноcть воздуха, измеренная на высоте 2 м над землей.
Te - Эффективная температура - температура, которую ощущает одетый по сезону человек в тени. Характеристика душности погоды. При расчете учитывается влияние влажности воздуха и скорости ветра на теплоощущения человека.
Tes - Эффективная температура на солнце - температура, которую ощущает человек, с поправкой на солнечный нагрев. Характеристика знойности погоды. Зависит от высоты солнца над горизонтом, облачности и скорости ветра. Ночью, в пасмурную погоду, а также при ветре 12 м/с и более поправка равна нулю.
P - Атмосферное давление - приведенное к уровню моря атмосферное давление.
Po - Атмосферное давление - измеренное на уровне метеостанции атмосферное давление.
Tmin - Минимальная температура - минимум температуры воздуха на высоте 2 м над землей.
Tmax - Максимальная температура - максимум температуры воздуха на высоте 2 м над землей.
R - Количество осадков - Количество выпавших осадков за период времени, мм. При наведении курсора мыши на число - период времени, за который выпало указанное количество осадков.
R24 - Количество осадков - Количество выпавших осадков за 24 часа, мм.
S - Снежный покров - Высота снежного покрова, см. При наведении курсора мыши на число - состояние снежного покрова и степень покрытия местности в баллах.